[ hide orbit diagram ]
For accurate long-term ephemerides, please instead use our Horizons system.This orbit viewer was implemented using two-body methods, and hence should not be used for determining accurate long-term trajectories (over several years or decades) or planetary encounter circumstances.
Orbital Elements at Epoch 2459200.5 (2020-Dec-17.0) TDB
Reference: JPL 32 (heliocentric ecliptic J2000)
Element | Value | Uncertainty (1-sigma) | Units |
e | .1797610201423169 | 4.1557e-08 | |
a | 2.726872386243791 | 1.1757e-08 | au |
q | 2.236687024294693 | 1.1064e-07 | au |
i | 8.628013186442004 | 4.0142e-06 | deg |
node | 204.2257649337307 | 2.3372e-05 | deg |
peri | 163.1227895792806 | 2.52e-05 | deg |
M | 134.696134794163 | 1.0268e-05 | deg |
tp | 2458585.113052277960 (2019-Apr-11.61305228) | 4.5181e-05 | TDB |
period | 1644.733915479324 4.50 | 1.0637e-05 2.912e-08 | d yr |
n | .2188803894732635 | 1.4155e-09 | deg/d |
Q | 3.217057748192889 | 1.387e-08 | au |
|
| | Orbit Determination Parameters
Additional Information
|
[ show covariance matrix ]
Physical Parameter Table
Parameter |
Symbol |
Value |
Units |
Sigma |
Reference |
Notes |
absolute magnitude |
H |
14.06 |
|
n/a |
E2021B10 |
|
|
10648 Plancius | Discovered 1960 Sept. 24 by C. J. van Houten and I. van Houten-Groeneveld on Palomar Schmidt plates taken by T. Gehrels. |
Petrus Plancius (Pieter Platevoet, 1552-1622) was a Dutch theologian, astronomer, navigator and appointed cartographer to the new Dutch East India Company. Plancius depicted the 12 new southern constellations on a globe he constructed in 1598. |
NOTE: some special characters may not display properly (any characters within {} are an attempt to place the proper accent above a character) |
Reference: 20020921/MPCPages.arc | Last Updated: 2003-10-02 |
|
[ hide close-approach data ]
Close-Approach Data ...sorted by Date/Time (TDB)
|
Date/Time (TDB) |
Time Uncertainty (days_HH:MM) |
Body |
Nominal Distance (au) |
Minimum Distance (au) |
Maximum Distance (au) |
V-relative (km/s) |
V-infinity (km/s) |
JD (TDB) |
Time Uncertainty (minutes) |
Semi-major axis (km) |
Semi-minor axis (km) |
range-LOV angle (deg) |
N-sigma |
BP |
Orbit Ref. |
Reference |
Modified |
2131-Jun-27 12:18 |
00:02 |
Eunom |
0.0433301725446493 |
0.0433226192927036 |
0.0433377279010089 |
5.31432382432099 |
5.31432376335952 |
2499569.012655058 |
1.53706491426852 |
608.073530016249 |
30.7497807032654 |
51.8384773134037 |
165777.532554297 |
T |
32 |
CATAB v2.0f-lin.ifort 2021-Feb-24 01:56:08 |
2021-Feb-24 01:56 |
|
Alternate Designations
4089 P-L = 1987 QX3 = 1987 SM20 |
|
|